Kosmos-1971

operational
NORAD ID: 19502 Int'l Des: 1988-085 Owner: UNKS Country: SU Constellation: GLONASS
MEOCIRCULAR

Über Kosmos-1971

Beschreibung wird geladen...

Live-Position

3D-Globus wird geladen...

Nächste Überflüge

Höhenverlauf

Altitude vs Time

uPlot chart will show altitude changes over time

Zweizeiliger Elementsatz

1 19502U 88085B 25352.36136553 -.00000063 00000-0 00000-0 0 9995
2 19502 65.3420 320.5532 0022842 12.4866 344.9524 2.13101702275499
Epoch: 18. Dez. 2025 • Age: 17 hours

Aktueller Status

Höhe 19186.6 km
Geschwindigkeit 3.94 km/s
Subsatellitenpunkt 1.82°N, 28.07°E
Startdatum 16. Sept. 1988
Alter 37.2 years
Typ other

Technische Details

Klassifizierung Payload
Masse 1300.00 kg
Trockenmasse 1200.00 kg
Gesamtmasse 1300.00 kg
Länge 4.00 m
Durchmesser 1.50 m
Spannweite 7.80 m
Form Cyl + Ant + 2 Pan
Hersteller OAZ
Bus-Typ Uragan
Phasenstatus In Orbit
Besitzer/Staat UNKS/SU

Große Konstellationen

Loading constellations...